FW1426 Weather Reports


time (UTC)temp
F
wind
direction
speed
knots
gust
knots
rain 1hr
in
rain 24hr
in
rain mn
in
humidity
%
barometer
mb
20200531073044 82 273 0.9 3.5 0.00 0.00 0.00 36 1006.2
20200531071539 84 272 0.9 3.5 0.00 0.00 0.00 30 1006.3
20200531070024 84 252 2.6 4.3 0.00 0.00 0.00 29 1006.1
20200531064539 85 202 0.0 3.5 0.00 0.00 0.00 29 1006.1
20200531063044 86 189 1.7 6.1 0.00 0.00 0.00 29 1006.1
20200531061558 85 205 1.7 4.3 0.00 0.00 0.00 29 1005.8
20200531060028 85 175 2.6 5.2 0.00 0.00 0.00 28 1005.7
20200531054520 85 197 0.0 4.3 0.00 0.00 0.00 29 1005.2
20200531053047 85 52 1.7 2.6 0.00 0.00 0.00 29 1005.8
20200531051523 85 52 1.7 3.5 0.00 0.00 0.00 29 1005.8
20200531050034 86 52 0.0 2.6 0.00 0.00 0.00 28 1005.9
20200531044527 87 52 0.9 2.6 0.00 0.00 0.00 27 1005.9
20200531043019 87 88 2.6 5.2 0.00 0.00 0.00 27 1005.6
20200531041516 88 70 0.9 2.6 0.00 0.00 0.00 27 1005.7
20200531040018 88 84 1.7 7.8 0.00 0.00 0.00 27 1005.7
20200531034536 88 265 0.9 2.6 0.00 0.00 0.00 27 1005.8
20200531033102 89 263 0.0 7.8 0.00 0.00 0.00 26 1005.7
20200531031520 90 302 5.2 15.6 0.00 0.00 0.00 25 1005.8
20200531030011 91 252 7.8 12.2 0.00 0.00 0.00 22 1006.4
20200531024511 91 229 5.2 11.3 0.00 0.00 0.00 22 1006.8
20200531023009 92 250 8.7 18.2 0.00 0.00 0.00 21 1006.4
20200531021518 93 257 6.1 13.0 0.00 0.00 0.00 21 1005.8
20200531020041 93 245 4.3 8.7 0.00 0.00 0.00 20 1005.3
20200531014516 94 257 7.8 14.8 0.00 0.00 0.00 19 1005.3
20200531013012 94 304 3.5 14.8 0.00 0.00 0.00 18 1004.5
20200531011541 94 239 7.0 16.5 0.00 0.00 0.00 18 1004.2
20200531010006 95 250 9.6 18.2 0.00 0.00 0.00 17 1003.6
20200531004504 95 234 7.8 14.8 0.00 0.00 0.00 18 1003.4
20200531003004 95 264 8.7 15.6 0.00 0.00 0.00 18 1003.8
20200531001504 94 322 5.2 12.2 0.00 0.00 0.00 21 1003.7
20200531000015 97 294 6.1 13.0 0.00 0.00 0.00 16 1003.8
20200530234505 97 214 4.3 11.3 0.00 0.00 0.00 16 1003.8
20200530233005 97 189 7.0 13.0 0.00 0.00 0.00 15 1003.5
20200530231516 97 221 7.8 18.2 0.00 0.00 0.00 15 1003.5
20200530230140 97 201 9.6 25.2 0.00 0.00 0.00 16 1003.4
20200530224756 98 211 7.8 17.4 0.00 0.00 0.00 17 1003.5
20200530223204 100 193 7.8 13.9 0.00 0.00 0.00 16 1003.6
20200530221711 101 180 1.7 12.2 0.00 0.00 0.00 14 1003.5
20200530220313 102 199 3.5 14.8 0.00 0.00 0.00 16 1003.6
20200530214626 102 210 3.5 8.7 0.00 0.00 0.00 16 1003.7
20200530213152 103 160 4.3 7.8 0.00 0.00 0.00 15 1003.8
20200530211733 102 312 2.6 4.3 0.00 0.00 0.00 16 1004.1
20200530210103 105 238 3.5 7.8 0.00 0.00 0.00 15 1004.3
20200530203259 105 346 1.7 8.7 0.00 0.00 0.00 16 1004.8
20200530201606 103 70 4.3 8.7 0.00 0.00 0.00 16 1005.3
20200530200051 104 235 4.3 8.7 0.00 0.00 0.00 16 1005.6
20200530194612 103 307 0.9 6.1 0.00 0.00 0.00 16 1005.9
20200530193051 102 252 4.3 9.6 0.00 0.00 0.00 18 1006.1
20200530190050 100 229 2.6 8.7 0.00 0.00 0.00 19 1006.6
20200530184654 99 286 3.5 9.6 0.00 0.00 0.00 19 1006.8
20200530183039 99 302 3.5 10.4 0.00 0.00 0.00 20 1006.9
20200530181538 99 274 4.3 8.7 0.00 0.00 0.00 20 1007.2
20200530180028 99 305 1.7 7.8 0.00 0.00 0.00 19 1007.3
20200530174522 97 78 0.9 2.6 0.00 0.00 0.00 20 1007.5
20200530173039 97 61 0.0 4.3 0.00 0.00 0.00 22 1007.7
20200530171538 96 63 2.6 6.1 0.00 0.00 0.00 22 1007.8
20200530170011 95 67 1.7 4.3 0.00 0.00 0.00 22 1008.0
20200530164512 93 269 0.9 2.6 0.00 0.00 0.00 24 1008.1
20200530163001 91 270 1.7 3.5 0.00 0.00 0.00 27 1008.1
20200530161628 91 262 0.9 3.5 0.00 0.00 0.00 27 1008.3
20200530160116 90 252 1.7 4.3 0.00 0.00 0.00 29 1008.4
20200530154659 89 280 0.9 2.6 0.00 0.00 0.00 29 1008.5
20200530153130 87 340 0.9 2.6 0.00 0.00 0.00 29 1008.5
20200530151601 87 350 0.9 2.6 0.00 0.00 0.00 32 1008.6
20200530150059 85 346 1.7 3.5 0.00 0.00 0.00 35 1008.7
20200530144644 83 355 2.6 4.3 0.00 0.00 0.00 38 1008.7
20200530143134 81 65 1.7 2.6 0.00 0.00 0.00 42 1008.5
20200530141615 83 67 0.9 2.6 0.00 0.00 0.00 38 1008.4
20200530140107 80 42 1.7 3.5 0.00 0.00 0.00 41 1008.3
20200530134559 79 79 0.9 2.6 0.00 0.00 0.00 43 1008.3
20200530133100 78 80 1.7 3.5 0.00 0.00 0.00 41 1008.4
20200530131558 76 72 1.7 4.3 0.00 0.00 0.00 43 1008.5
20200530130025 76 149 0.0 1.7 0.00 0.00 0.00 48 1008.5
20200530124534 76 150 0.9 2.6 0.00 0.00 0.00 44 1008.3
20200530123043 76 150 0.9 4.3 0.00 0.00 0.00 41 1008.1
20200530121608 76 146 1.7 3.5 0.00 0.00 0.00 41 1008.1
20200530120027 75 79 1.7 2.6 0.00 0.00 0.00 41 1007.7
20200530114528 76 78 0.9 2.6 0.00 0.00 0.00 42 1007.8
20200530113014 77 78 0.9 3.5 0.00 0.00 0.00 39 1007.7
20200530111535 77 78 0.9 2.6 0.00 0.00 0.00 41 1007.6
20200530110033 78 79 0.9 2.6 0.00 0.00 0.00 40 1007.7
20200530104535 79 77 1.7 3.5 0.00 0.00 0.00 37 1007.7
20200530103017 79 46 2.6 4.3 0.00 0.00 0.00 38 1007.7
20200530101504 79 172 1.7 2.6 0.00 0.00 0.00 40 1007.5
20200530100010 80 175 0.9 2.6 0.00 0.00 0.00 36 1007.5
20200530094715 79 160 2.6 4.3 0.00 0.00 0.00 37 1007.6
20200530093115 80 92 0.0 1.7 0.00 0.00 0.00 38 1007.7
20200530091723 81 92 0.9 3.5 0.00 0.00 0.00 34 1007.7
20200530090222 82 103 2.6 6.1 0.00 0.00 0.00 33 1007.8
20200530084626 80 90 1.7 2.6 0.00 0.00 0.00 34 1007.8
20200530083217 81 89 0.9 2.6 0.00 0.00 0.00 34 1007.9
20200530081717 81 89 0.9 2.6 0.00 0.00 0.00 33 1008.1
20200530080116 83 89 0.9 3.5 0.00 0.00 0.00 31 1008.4
20200530074640 83 117 1.7 3.5 0.00 0.00 0.00 31 1008.7